Regional Weather Roundup
Issued by NWS Cleveland, OH

Home | Current Version | Previous Version | Graphics & Text | Print | Product List | Glossary On
Versions: 1 2 3 4 5 6 7 8 9 10 11 12 13 14 15 16 17 18 19 20 21 22 23 24 25 26 27 28 29 30 31 32 33 34 35 36 37 38 39 40 41 42 43 44 45 46 47 48 49 50
000
ASUS41 KCLE 241400
RWRCLE
OHIO REGIONAL WEATHER ROUNDUP
NATIONAL WEATHER SERVICE WILMINGTON, OH
1000 AM EDT SUN JUL 24 2016

NOTE: "FAIR" INDICATES FEW OR NO CLOUDS BELOW 12,000 FEET WITH NO
SIGNIFICANT WEATHER AND/OR OBSTRUCTIONS TO VISIBILITY.

OHZ001>008-015>018-024>027-034-035-043-044-241500-
   NORTHWEST OHIO

CITY           SKY/WX    TMP DP  RH WIND       PRES   REMARKS
DEFIANCE       PTSUNNY   77  70  79 CALM      30.00R
FINDLAY        LGT RAIN  80  74  81 SW5       29.99R
TOLEDO EXPRESS FAIR      78  74  87 SW7       29.98R
TOLEDO EXEC    PTSUNNY   80  75  84 W7        29.98R
LIMA           FAIR      79  75  87 SW5       30.02R
$$

OHZ009>014-019>023-028>033-038-089-241500-
   NORTHEAST OHIO

CITY           SKY/WX    TMP DP  RH WIND       PRES   REMARKS
CLE-HOPKINS    CLOUDY    85  58  39 S9        30.01S
CLE-LAKEFRONT  FAIR      86  57  37 S14       29.98S
CUY CO. ARPT   PTSUNNY   86  63  45 S9        30.01R
LORAIN-ELYRIA  FAIR      82  65  56 S10       30.00S
ASHTABULA      FAIR      76  66  71 S5        30.04R
AKRON-CANTON   PTSUNNY   84  60  44 S15       30.03R
WOOSTER        NOT AVBL
MANSFIELD      FAIR      82  71  69 S5        30.03R
YOUNGSTOWN     PTSUNNY   80  63  55 S6        30.04R
$$

OHZ042-051>053-060>062-070>072-077>081-241500-
  SOUTHWEST OHIO

CITY           SKY/WX    TMP DP  RH WIND       PRES   REMARKS
CINC-COVINGTON PTSUNNY   85  75  72 SW6       30.03R HX  93
CINC-LUNKEN    FAIR      83  77  82 S6        30.02R HX  92
HAMILTON       FAIR      86  73  65 CALM      30.03R HX  93
DAYTON         NOT AVBL
WRIGHT-PAT AFB NOT AVBL
DAYTON GENERAL FAIR      84  72  67 NW5       30.03R
WILMINGTON     FAIR      86  75  69 SW6       30.03R HX  95
$$

OHZ036-037-039>041-045>050-054>059-063>069-073>076-082>088-241500-
  CENTRAL AND SOUTHEAST OHIO

CITY           SKY/WX    TMP DP  RH WIND       PRES   REMARKS
COLUMBUS       PTSUNNY   83  74  74 S7        30.01R
OSU AIRPORT    FAIR      85  75  72 W8        30.02R HX  93
BOLTON FIELD   NOT AVBL
RICKENBACK AFB NOT AVBL
NEWARK         FAIR      84  74  71 SW5       30.02R HX  91
MARION         FAIR      84  73  69 W6        30.02R HX  90
LANCASTER      FAIR      85  76  74 CALM      30.02S HX  94
ZANESVILLE     FAIR      85  74  69 S5        30.02S HX  92
NEW PHILLY     FAIR      83  69  62 CALM      30.03R
$$




USA.gov is the U.S. government's official web portal to all federal, state and local government web resources and services.